Location: Baia Mare
(47.6567°N, 23.5850°E)
Time: 03:31:32
(UTC+03:00)

ISS - Pass Details

Date: 05 September 2018
Orbit: 402 x 408 km, 51.6° (Epoch: 20 September)

Event Time Altitude Azimuth Distance (km) Brightness Sun altitude
Exits shadow 05:01:17 59° 227° (SW) 470 -3.9 -17.6°
Maximum altitude 05:01:48 80° 155° (SSE) 414 -3.9 -17.6°
Drops below altitude 10° 05:05:05 10° 67° (ENE) 1,461 0.3 -17.1°
Sets 05:07:09 0° 67° (ENE) 2,322 1.7 -16.8°
